This is the latest recevied weather packets stored in our database for station/object W2BP-13. If no packets are shown the sender has not sent any weather packets the latest 10 day(s).
| Time | Temp. | Humidity | Pressure | Rain* | Wind** | Luminosity | Snow |
|---|---|---|---|---|---|---|---|
| 1777586132 | 26.11° C | 26% | 1022.3 hPa | 0 mm | - | - | - |
| 1777585233 | 26.11° C | 27% | 1022.4 hPa | 0 mm | - | - | - |
| 1777584333 | 26.67° C | 31% | 1022.7 hPa | 0 mm | - | - | - |
| 1777583433 | 26.11° C | 31% | 1023 hPa | 0 mm | - | - | - |
| 1777582532 | 25° C | 32% | 1023 hPa | 0 mm | - | - | - |
| 1777581633 | 26.11° C | 35% | 1023.2 hPa | 0 mm | - | - | - |
| 1777580733 | 25° C | 37% | 1023.5 hPa | 0 mm | - | - | - |
| 1777579833 | 23.89° C | 36% | 1023.8 hPa | 0 mm | - | - | - |
| 1777578933 | 24.44° C | 38% | 1023.9 hPa | 0 mm | - | - | - |
| 1777578033 | 23.89° C | 36% | 1024 hPa | 0 mm | - | - | - |
| 1777577133 | 23.33° C | 36% | 1024.1 hPa | 0 mm | - | - | - |
| 1777576232 | 23.33° C | 36% | 1024.3 hPa | 0 mm | - | - | - |
| 1777575333 | 22.78° C | 36% | 1024.4 hPa | 0 mm | - | - | - |
| 1777574433 | 22.22° C | 40% | 1024.5 hPa | 0 mm | - | - | - |
| 1777573533 | 22.22° C | 38% | 1024.8 hPa | 0 mm | - | - | - |
| 1777572632 | 20.56° C | 44% | 1025.1 hPa | 0 mm | - | - | - |
| 1777571733 | 20.56° C | 42% | 1025.2 hPa | 0 mm | - | - | - |
| 1777570833 | 20.56° C | 44% | 1025.5 hPa | 0 mm | - | - | - |
| 1777569932 | 19.44° C | 47% | 1025.5 hPa | 0 mm | - | - | - |
| 1777569032 | 18.33° C | 48% | 1025.6 hPa | 0 mm | - | - | - |
| 1777568133 | 18.33° C | 47% | 1025.8 hPa | 0 mm | - | - | - |
| 1777567233 | 17.78° C | 47% | 1025.8 hPa | 0 mm | - | - | - |
| 1777566333 | 17.22° C | 50% | 1025.9 hPa | 0 mm | - | - | - |
| 1777565433 | 16.11° C | 56% | 1026.2 hPa | 0 mm | - | - | - |
| 1777564532 | 14.44° C | 58% | 1026.4 hPa | 0 mm | - | - | - |
* Rain latest hour (hover to see other rain measurements)
** Current wind speed in m/s (hover to see current wind gust speed)